Location: Unspecified
(0.0000°N, 0.0000°E)
Time: 20:52:17
(UTC+01:00)

USA 116 - Visible Passes

Search period start: 02 December 2016 00:00
Search period end: 12 December 2016 00:00
Orbit: 405 x 834 km, 97.9° (Epoch: 18 November)

Date Brightness Start Highest point End Pass type
(mag) Time Alt. Az. Time Alt. Az. Time Alt. Az.
02 Dec 5.1 05:35:44 10° SE 05:38:47 33° ENE 05:42:05 10° NNE visible
03 Dec 3.9 05:49:11 10° SSE 05:52:29 61° ENE 05:56:09 10° N visible
04 Dec 3.4 06:02:51 10° S 06:06:13 74° W 06:09:59 10° NNW visible
05 Dec 4.0 06:16:44 10° S 06:19:59 41° W 06:23:35 10° NNW visible
07 Dec 6.6 05:10:01 10° ESE 05:11:57 14° ENE 05:13:59 10° NE visible
08 Dec 5.9 05:22:42 10° SE 05:25:37 23° ENE 05:28:47 10° NNE visible
09 Dec 5.1 05:35:54 10° SE 05:39:18 37° ENE 05:43:06 10° N visible
10 Dec 4.1 05:49:22 10° SSE 05:53:00 64° ENE 05:57:08 10° N visible
11 Dec 3.7 06:03:02 10° S 06:06:45 75° W 06:10:58 10° NNW visible
